Location: Unspecified
(0.0000°N, 0.0000°E)
Time: 16:54:04
(UTC+00:00)

ARIANE 1 DEB - Visible Passes

Search period start: 14 January 2026 00:00
Search period end: 24 January 2026 00:00
Orbit: 569 x 20753 km, 19.3° (Epoch: 2 January)

Date Brightness Start Highest point End Pass type
(mag) Time Alt. Az. Time Alt. Az. Time Alt. Az.
14 Jan ? 14:07:23 10° SW 14:23:46 62° SSE 18:37:39 10° ENE visible
14 Jan ? 21:08:08 10° W 01:45:55 48° NE 01:55:05 10° E visible
15 Jan ? 14:45:02 10° WSW 15:06:03 71° SSE 19:18:38 17° ENE visible
15 Jan ? 22:06:41 10° W 02:21:58 59° NNE 02:33:08 10° E visible
16 Jan ? 15:22:56 10° WSW 15:50:34 79° SSE 19:54:50 26° ENE visible
16 Jan ? 23:36:19 10° WNW 03:00:51 63° N 03:10:56 10° E visible
17 Jan ? 16:01:09 10° WSW 16:38:45 87° SSE 20:31:02 36° ENE visible
18 Jan ? 02:23:11 10° WNW 03:40:41 69° NNE 03:48:34 10° E visible
18 Jan ? 16:39:47 10° WSW 17:32:57 85° NNW 21:07:14 45° NE visible
19 Jan ? 04:10:06 36° WNW 04:19:42 80° NNE 04:25:59 10° ESE visible
19 Jan ? 17:18:59 10° WSW 18:35:55 77° NW 21:43:26 54° NE visible
20 Jan ? 04:46:08 23° WNW 04:58:06 83° SSW 05:03:18 10° ESE visible
20 Jan ? 17:58:59 10° WSW 19:47:15 69° NW 22:19:38 60° NNE visible
21 Jan ? 05:22:09 12° WNW 05:36:03 60° SSW 05:40:28 10° SE visible
21 Jan ? 18:40:08 10° W 22:50:14 62° N 22:55:50 62° N visible
22 Jan ? 19:23:02 10° W 00:24:58 16° ENE 00:26:48 10° E visible
